Date,TemperatureHighF,TemperatureAvgF,TemperatureLowF,DewpointHighF,DewpointAvgF,DewpointLowF,HumidityHigh,HumidityAvg,HumidityLow,PressureMaxIn,PressureMinIn,WindSpeedMaxMPH,WindSpeedAvgMPH,GustSpeedMaxMPH,PrecipitationSumIn
2014-1-18,18,14,13,12,-5,-100,76,63,64,0.00,40.00,17,9,22,0.00
2014-1-19,30,29,29,23,21,19,73,69,66,0.00,40.00,21,18,32,0.00
2014-1-20,30,26,22,30,25,19,94,90,85,0.00,40.00,7,3,16,0.00
2014-1-21,23,15,7,21,5,-4,93,62,51,0.00,40.00,11,7,17,0.00
2014-1-22,10,4,-3,1,-1,-4,90,77,62,0.00,40.00,9,3,12,0.00
2014-1-23,12,7,2,10,4,-2,91,82,69,0.00,40.00,13,8,19,0.00
2014-1-24,16,8,-2,3,0,-4,85,68,54,0.00,40.00,21,12,30,0.00
2014-1-26,17,10,4,14,6,-2,90,81,69,0.00,40.00,11,8,30,0.00
2014-1-27,39,16,-6,30,9,-13,80,68,58,0.00,40.00,19,13,34,0.00
2014-1-28,6,-4,-10,-8,-11,-15,80,65,50,0.00,40.00,6,2,34,0.00
2014-1-29,17,13,6,3,-1,-4,58,49,41,0.00,40.00,14,12,21,0.00
2014-1-30,19,11,2,1,-2,-8,67,55,40,0.00,40.00,12,6,14,0.00
2014-1-31,34,31,29,32,20,10,94,64,40,0.00,40.00,9,4,19,0.00
2014-2-1,50,41,30,32,23,-100,94,57,41,0.00,40.00,8,3,19,0.00
2014-4-6,51,36,26,34,19,-100,97,69,32,0.00,40.00,6,2,21,9.12
2014-4-7,49,48,47,46,46,45,99,98,97,0.00,40.00,9,7,14,7.37
2014-4-8,59,52,46,39,35,30,76,55,32,0.00,40.00,12,10,34,0.00
2014-4-9,56,46,40,36,33,28,82,64,33,0.00,40.00,11,6,17,0.00
2014-4-10,68,50,39,36,32,28,68,52,29,0.00,40.00,17,8,30,0.00
2014-4-11,66,58,50,52,47,36,97,73,34,0.00,40.00,14,6,30,0.00
2014-4-12,70,58,42,43,38,32,99,58,27,0.00,40.00,13,7,19,0.00
2014-4-13,65,52,65,45,16,-100,50,49,49,0.00,40.00,4,4,19,0.00
2014-6-15,-200,0,200,-100,-100,-100,85,85,85,0.00,40.00,0,0,12,0.00
2014-6-20,75,75,75,68,68,68,81,81,81,0.00,40.00,4,4,6,0.00
2014-6-29,-200,0,200,-100,-100,-100,0,0,100,0.00,40.00,2,2,15,0.00
2014-7-2,83,80,78,73,67,61,88,68,49,0.00,40.00,11,10,21,0.00
2014-7-6,62,31,62,57,-22,-100,89,44,89,0.00,40.00,0,0,6,0.00
2014-7-31,-200,0,200,-100,0,200,73,73,73,0.00,40.00,4,4,10,0.00
2014-8-3,62,62,62,61,61,61,100,100,100,0.00,40.00,0,0,0,0.00
2014-8-4,78,78,78,57,57,57,51,51,51,0.00,40.00,3,3,10,0.00
2014-9-8,74,62,55,57,54,52,91,80,58,0.00,40.00,5,4,10,0.00
2014-9-9,75,71,66,66,65,63,94,80,67,0.00,40.00,5,3,10,0.00
2014-9-10,79,72,63,71,67,63,98,86,73,0.00,40.00,17,8,28,0.00
2014-9-11,76,64,57,69,60,53,96,87,74,0.00,40.00,18,8,24,0.00
2014-9-12,61,57,55,54,52,51,90,82,69,0.00,40.00,7,3,11,0.00
2014-9-13,59,56,49,54,53,45,96,90,66,0.00,40.00,11,4,17,0.00
2014-9-14,44,34,39,43,34,39,100,82,96,0.00,40.00,1,0,1,0.00
2014-9-16,66,58,51,55,53,50,98,84,58,0.00,40.00,9,3,13,0.00
2014-9-17,67,56,45,56,48,45,100,78,50,0.00,40.00,7,2,12,0.00
2014-9-18,68,57,47,53,49,46,98,76,46,0.00,40.00,7,2,12,0.00
2014-9-20,77,68,59,64,61,56,91,79,63,0.00,40.00,13,8,20,0.00
2014-9-21,78,68,55,66,57,42,92,70,29,0.00,40.00,22,12,30,0.00
2014-9-22,55,52,46,53,47,42,96,83,62,0.00,40.00,10,6,14,0.00
2014-9-23,61,56,39,47,45,39,99,67,55,0.00,40.00,6,4,11,0.00
2014-9-24,72,56,47,50,47,44,97,75,37,0.00,40.00,11,4,17,0.00
2014-9-25,74,66,47,56,52,46,94,63,46,0.00,40.00,6,3,10,0.00
2014-9-26,77,69,51,59,56,51,100,64,48,0.00,40.00,7,3,11,0.00
2014-9-27,76,64,48,58,54,48,100,73,43,0.00,40.00,7,3,14,0.00
2014-9-28,77,60,47,60,53,47,100,80,44,0.00,40.00,6,1,10,0.00
2014-9-29,78,62,52,61,55,52,99,82,43,0.00,40.00,7,2,9,0.00
2014-9-30,67,57,49,61,55,48,100,92,76,0.00,40.00,9,2,12,0.00
2014-10-1,65,56,49,57,54,49,100,94,72,0.00,40.00,4,2,11,0.00
2014-10-2,78,61,46,61,54,46,100,81,54,0.00,40.00,10,4,15,0.00
2014-10-3,69,64,54,63,58,52,97,82,66,0.00,40.00,20,9,27,0.00
2014-10-4,54,46,41,52,40,30,97,81,55,0.00,40.00,19,11,24,0.00
2014-10-5,53,46,38,38,35,33,89,65,46,0.00,40.00,15,8,22,0.00
2014-10-6,58,51,45,53,46,38,94,82,65,0.00,40.00,17,8,26,0.00
2014-10-7,61,53,49,55,51,47,97,92,73,0.00,40.00,13,8,19,0.55
2014-10-8,63,53,46,51,46,38,98,80,42,0.00,40.00,19,8,25,0.00
2014-10-9,57,47,40,48,42,37,98,82,63,0.00,40.00,12,3,14,0.00
2014-10-10,57,51,45,50,46,42,100,84,61,0.00,40.00,6,2,12,0.00
2014-10-11,57,50,42,42,40,38,86,69,51,0.00,40.00,9,5,15,0.00
2014-10-12,63,49,33,54,42,32,95,78,50,0.00,40.00,9,5,14,0.00
2014-10-13,73,64,56,62,58,54,93,82,65,0.00,40.00,13,7,19,0.00
2014-10-14,76,69,56,62,59,56,97,71,48,0.00,40.00,20,12,28,0.55
2014-10-15,65,58,51,56,55,51,100,89,63,0.00,40.00,11,5,14,0.55
2014-10-16,62,54,51,54,52,51,100,93,73,0.00,40.00,9,4,12,0.00
2014-10-17,67,58,52,53,50,47,92,76,53,0.00,40.00,17,11,27,0.00
2014-10-18,57,49,44,49,44,40,93,81,68,0.00,40.00,17,10,23,0.00
2014-10-19,53,44,40,42,36,33,90,71,46,0.00,40.00,9,4,14,0.00
2014-10-20,57,49,41,49,42,36,96,79,64,0.00,40.00,11,6,18,0.00
2014-10-21,51,49,45,50,47,43,99,93,85,0.00,40.00,10,6,16,0.00
2014-10-22,50,47,43,45,44,41,97,88,76,0.00,40.00,6,4,13,0.00
2014-10-23,57,48,41,45,43,40,97,85,63,0.00,40.00,8,3,14,0.00
2014-10-24,61,47,35,45,40,35,100,78,46,0.00,40.00,8,3,11,0.00
2014-10-25,69,52,42,55,44,34,90,75,43,0.00,40.00,18,6,24,0.00
2014-10-26,61,52,38,36,31,27,79,47,26,0.00,40.00,11,5,17,0.00
2014-10-27,73,53,34,58,42,31,90,69,37,0.00,40.00,12,4,17,0.00
2014-10-28,73,65,52,61,56,45,94,72,58,0.00,40.00,21,12,29,1.69
2014-10-29,56,49,45,46,40,34,86,72,49,0.00,40.00,15,7,25,0.00
2014-10-30,48,41,35,40,36,34,94,83,66,0.00,40.00,6,2,9,0.00
2014-10-31,46,43,41,42,40,37,97,86,74,0.00,40.00,7,3,11,9.55
2014-11-1,42,40,36,41,36,27,97,86,67,0.00,40.00,11,6,19,7.28
2014-11-2,42,36,29,29,27,25,87,69,56,0.00,40.00,12,5,17,0.00
2014-11-3,59,43,28,29,24,22,87,53,24,0.00,40.00,14,6,20,0.00
2014-11-4,66,55,46,52,35,24,94,47,36,0.00,40.00,20,12,28,0.55
2014-11-5,54,48,42,51,40,36,93,77,55,0.00,40.00,14,4,23,0.00
2014-11-6,50,46,44,48,44,40,99,93,80,0.00,40.00,19,8,30,21.95
2014-11-7,44,37,28,43,30,25,96,75,52,0.00,40.00,12,7,22,1.10
2014-11-8,49,39,28,38,31,25,90,72,56,0.00,40.00,14,8,21,0.00
2014-11-9,50,43,37,36,34,31,90,70,47,0.00,40.00,14,6,18,0.00
2014-11-10,62,50,41,36,33,32,71,54,34,0.00,40.00,12,6,19,0.00
2014-11-11,68,57,47,55,42,34,97,56,43,0.00,40.00,17,10,28,0.00
2014-11-12,47,37,34,44,31,26,90,76,62,0.00,40.00,13,8,20,0.00
2014-11-13,34,30,25,26,24,21,87,78,71,0.00,40.00,10,5,14,1.69
2014-11-14,28,24,20,22,19,16,86,79,64,0.00,40.00,10,6,16,0.00
2014-11-15,35,24,21,20,18,15,83,76,44,0.00,40.00,10,2,19,0.00
2014-11-16,36,32,27,32,26,18,98,80,60,0.00,40.00,8,4,12,1.10
2014-11-17,32,27,17,32,24,8,99,87,68,0.00,40.00,23,8,30,17.88
2014-11-18,17,14,11,10,6,3,79,69,64,0.00,40.00,23,16,30,0.00
2014-11-19,37,22,10,26,14,6,85,72,56,0.00,40.00,22,12,27,0.55
2014-11-20,31,25,21,22,15,10,74,66,59,0.00,40.00,21,16,29,0.00
2014-11-21,23,17,12,17,11,7,88,76,49,0.00,40.00,12,3,14,0.00
2014-11-22,47,31,13,33,21,8,92,66,53,0.00,40.00,12,7,17,1.69
2014-11-23,63,52,44,50,39,31,94,61,49,0.00,40.00,17,8,22,7.32
2014-11-24,65,54,39,55,44,28,94,70,53,0.00,40.00,34,21,50,2.24
2014-11-25,39,36,30,29,28,26,86,71,61,0.00,40.00,19,10,28,0.00
2014-11-26,37,33,28,29,27,25,89,79,69,0.00,40.00,6,3,8,0.00
2014-11-27,33,30,27,30,26,22,95,85,67,0.00,40.00,11,6,17,4.44
2014-11-28,28,27,23,24,20,15,85,74,65,0.00,40.00,10,6,17,0.00
2014-11-29,51,45,28,39,31,20,69,56,51,0.00,40.00,14,11,21,0.00
2014-11-30,61,56,51,52,47,39,75,72,64,0.00,40.00,16,12,24,0.00
2014-12-1,35,32,28,29,24,20,80,72,68,0.00,40.00,7,5,12,0.00
2014-12-2,35,30,24,34,26,18,99,87,72,0.00,40.00,11,6,15,0.00
2014-12-3,38,35,28,35,31,24,97,85,64,0.00,40.00,16,10,24,0.00
2014-12-4,34,30,25,29,26,24,95,86,73,0.00,40.00,7,2,8,0.00
2014-12-5,40,35,31,40,31,25,100,84,74,0.00,40.00,9,4,11,12.86
2014-12-6,41,39,36,41,37,30,100,92,77,0.00,40.00,11,7,19,12.90
2014-12-11,34,30,25,24,18,12,83,59,40,0.00,40.00,14,11,22,0.00
2014-12-12,31,27,23,25,23,20,93,86,79,0.00,40.00,9,5,14,0.00
2014-12-13,40,32,27,37,31,26,99,94,89,0.00,40.00,11,8,15,0.00
2014-12-14,47,42,40,42,39,37,94,86,85,0.00,40.00,11,7,13,0.00
2014-12-17,30,28,27,24,23,21,84,80,77,0.00,40.00,14,12,19,0.00
2014-12-18,28,28,27,24,22,20,88,79,74,0.00,40.00,12,7,18,0.00
2014-12-19,30,29,27,26,25,22,93,84,74,0.00,40.00,9,5,12,0.00
2014-12-20,30,24,28,24,18,21,82,71,68,0.00,40.00,4,1,6,0.00
2014-12-21,31,28,24,25,23,20,89,78,71,0.00,40.00,4,2,7,0.00
2014-12-22,44,33,21,34,27,19,92,81,67,0.00,40.00,12,6,16,0.00
2014-12-23,54,47,38,52,45,34,98,92,78,0.00,40.00,11,5,13,2.79
2014-12-24,53,53,53,52,52,52,96,96,96,0.00,40.00,6,6,9,0.00